Shirley, NY

5:08 AM EDT on October 22, 2019 (GMT -0400)
Brookhaven

Weather History for KHWV - September, 2019

Change the Weather History Date:

Tuesday, September 17, 2019

  Actual Average (WUND) Record (WUND)
Temperature  
Mean Temperature 60 °F -  
Max Temperature 75 °F - - (-1)
Min Temperature 48 °F - - (-1)
Degree Days  
Heating Degree Days 4    
Growing Degree Days 10 (Base 50)    
Moisture  
Dew Point 48 °F    
Average Humidity 65    
Maximum Humidity 93    
Minimum Humidity 30    
Precipitation  
Precipitation 0.00 in - - ()
Sea Level Pressure  
Sea Level Pressure 30.12 in    
Wind  
Wind Speed 3 mph (NNE)    
Max Wind Speed 12 mph    
Max Gust Speed 20 mph    
Visibility 10 miles    
Events      
Averages and records for this station are not official NWS values.
T = Trace of Precipitation, MM = Missing Value Source: NWS Daily Summary

Daily Weather History Graph

Daily Weather History Graph

Search for Another Location

Airport or City:

Astronomy

Sep. 17, 2019 Rise Set
Actual Time 6:33 AM EDT 6:57 PM EDT
Civil Twilight 6:06 AM EDT 7:24 PM EDT
Nautical Twilight 5:33 AM EDT 7:57 PM EDT
Astronomical Twilight 5:00 AM EDT 8:30 PM EDT
Moon 8:58 PM EDT (9/17) 9:36 AM EDT (9/17)
Length of Visible Light 13h 18m
Length of Day
12h 23m
Waning Gibbous, 89% of the Moon is Illuminated
Sep 17
Waning Gibbous
Sep 21
Last Quarter
Sep 28
New
Oct 5
First Quarter
Oct 13
Full

Hourly Weather History & Observations

Time (EDT) Temp. Dew Point Humidity Pressure Visibility Wind Dir Wind Speed Gust Speed Precip Events Conditions
12:56 AM 55.0 °F 52.0 °F 89% 30.07 in 10.0 mi Calm Calm - N/A   Clear
1:56 AM 54.0 °F 51.1 °F 90% 30.08 in 10.0 mi Calm Calm - N/A   Clear
2:56 AM 53.1 °F 50.0 °F 89% 30.08 in 10.0 mi Calm Calm - N/A   Clear
3:56 AM 52.0 °F 48.9 °F 89% 30.09 in 10.0 mi Calm Calm - N/A   Clear
4:56 AM 52.0 °F 48.9 °F 89% 30.09 in 10.0 mi Calm Calm - N/A   Clear
5:56 AM 48.9 °F 46.9 °F 93% 30.10 in 10.0 mi Calm Calm - N/A   Clear
6:56 AM 48.9 °F 46.9 °F 93% 30.12 in 10.0 mi Calm Calm - N/A   Clear
7:56 AM 57.9 °F 54.0 °F 87% 30.13 in 10.0 mi Calm Calm - N/A   Clear
8:56 AM 64.9 °F 53.1 °F 65% 30.14 in 10.0 mi NNW 9.2 mph - N/A   Clear
9:56 AM 69.1 °F 50.0 °F 51% 30.14 in 10.0 mi North 6.9 mph - N/A   Clear
10:56 AM 71.1 °F 46.9 °F 42% 30.14 in 10.0 mi North 11.5 mph - N/A   Clear
11:56 AM 73.0 °F 43.0 °F 34% 30.14 in 10.0 mi North 9.2 mph - N/A   Clear
12:56 PM 73.0 °F 44.1 °F 35% 30.13 in 10.0 mi North 11.5 mph - N/A   Clear
1:56 PM 73.0 °F 43.0 °F 34% 30.12 in 10.0 mi North 9.2 mph 19.6 mph N/A   Clear
2:56 PM 73.9 °F 41.0 °F 30% 30.11 in 10.0 mi NE 8.1 mph 17.3 mph N/A   Clear
3:56 PM 73.9 °F 42.1 °F 32% 30.10 in 10.0 mi North 9.2 mph 17.3 mph N/A   Clear
4:56 PM 73.0 °F 41.0 °F 31% 30.10 in 10.0 mi NE 8.1 mph - N/A   Clear
5:56 PM 71.1 °F 45.0 °F 39% 30.11 in 10.0 mi Calm Calm - N/A   Clear
6:56 PM 66.0 °F 46.9 °F 50% 30.12 in 10.0 mi Calm Calm - N/A   Scattered Clouds
7:56 PM 62.1 °F 51.1 °F 67% 30.14 in 10.0 mi Calm Calm - N/A   Clear
8:56 PM 60.1 °F 52.0 °F 75% 30.16 in 10.0 mi ESE 3.5 mph - N/A   Clear
9:56 PM 57.0 °F 52.0 °F 83% 30.16 in 10.0 mi Calm Calm - N/A   Clear
10:56 PM 55.0 °F 51.1 °F 86% 30.16 in 10.0 mi Calm Calm - N/A   Clear
11:56 PM 53.1 °F 50.0 °F 89% 30.17 in 10.0 mi Calm Calm - N/A   Clear